www.pogodaiklimat.ru
ПОГОДА в Латробе
Время
и дата
07:50 03.02
08:50 03.02
09:50 03.02
10:50 03.02
11:45 03.02
12:47 03.02
13:47 03.02
14:47 03.02
15:47 03.02
16:53 03.02
17:55 03.02
18:47 03.02
19:47 03.02
20:45 03.02
21:47 03.02
22:15 03.02
22:35 03.02
22:55 03.02
23:15 03.02
23:35 03.02
23:55 03.02
00:15 04.02
00:35 04.02
00:55 04.02
01:15 04.02
01:35 04.02
01:55 04.02
02:15 04.02
02:35 04.02
02:55 04.02
03:15 04.02
03:35 04.02
03:55 04.02
04:15 04.02
04:35 04.02
04:55 04.02
05:15 04.02
05:35 04.02
05:55 04.02
06:15 04.02
07:47 04.02
08:47 04.02
09:47 04.02
10:47 04.02
11:47 04.02
12:45 04.02
13:45 04.02
14:45 04.02
Ветер
(напр.,м/с)
Видим. Явления Облачность Т
(С)
Тd
(С)
f
(%)
Тe
(С)
Тes
(С)
Комфортность P
(гПа)
Po
(гПа)
Тmin
(С)
Tmax
(С)
R
(мм)
R24
(мм)
S
(см)
СЗ 7
{12}
16 км ясно -10.0 -18.0 52 -19 -19 978.6
З 8
{13}
16 км ясно -10.0 -19.0 48 -20 -19 979.9
З 8
{13}
16 км 8/8 900 м -9.0 -18.0 48 -18 -18 980.5
З 6
{11}
16 км 8/5 1110 m
[Ac]
-9.0 -17.0 52 -17 -17 981.2
З 7
{12}
16 км 8/8 -9.0 -17.0 52 -18 -17 981.5
СЗ 7
{12}
16 км слабый снег 8/8 1050 m
[Ns]
-9.0 -16.0 57 -18 -17 981.5
З 8
{13}
16 км слабый снег 8/8 990 m
[Ns]
-9.0 -16.0 57 -18 -18 981.8
СЗ 8
{13}
8 км слабый снег 8/8 660 m
[Ns]
-9.0 -16.0 57 -18 -18 983.1
СЗ 5
{9}
13 км слабый снег 8/8 390 m
[Ns]
-10.0 -15.0 67 -18 -17 984.1
СЗ 6 16 км слабый снег 8/8 630 m
[Ns]
-10.0 -17.0 57 -18 -18 985.7
З 7
{14}
16 км 8/8 750 м -11.0 -19.0 52 -20 -20 987.0
СЗ 5
{7}
16 км ясно -11.0 -17.0 61 -19 -19 988.0
З 4
{11}
16 км 5/5 810 м -12.0 -17.0 66 -19 -19 988.9
СЗ 3 16 км 5/5 1050 м -12.0 -17.0 66 -18 -18 989.3
З 4 16 км 5/5 1020 м -13.0 -18.0 66 -20 -20 989.9
штиль 0 16 км 2/2 960 м -13.0 -18.0 66 -13 -13 990.2
штиль 0 16 км ясно -13.0 -18.0 66 -13 -13 990.2
штиль 0 16 км ясно -13.0 -18.0 66 -13 -13 990.6
штиль 0 16 км ясно -13.0 -18.0 66 -13 -13 990.6
ЮЗ 2 16 км ясно -13.0 -18.0 66 -18 -18 990.2
штиль 0 16 км ясно -13.0 -18.0 66 -13 -13 989.9
штиль 0 16 км ясно -14.0 -18.0 72 -14 -14 990.2
штиль 0 16 км ясно -14.0 -18.0 72 -14 -14 990.2
штиль 0 16 км ясно -14.0 -18.0 72 -14 -14 990.2
штиль 0 16 км ясно -14.0 -18.0 72 -14 -14 989.9
ЮЗ 3 16 км ясно -14.0 -18.0 72 -20 -20 989.9
штиль 0 16 км ясно -15.0 -18.0 78 -15 -15 989.9
штиль 0 16 км ясно -14.0 -18.0 72 -14 -14 989.9
ЮЗ 3 16 км ясно -14.0 -18.0 72 -20 -20 989.9
ЮЗ 3 16 км ясно -14.0 -18.0 72 -20 -20 990.2
Ю 2 16 км ясно -14.0 -18.0 72 -19 -19 990.2
штиль 0 16 км ясно -15.0 -18.0 78 -15 -15 989.9
штиль 0 16 км ясно -15.0 -18.0 78 -15 -15 989.9
Ю 2 16 км ясно -15.0 -18.0 78 -20 -20 990.2
штиль 0 16 км ясно -14.0 -18.0 72 -14 -14 990.2
Ю 2 16 км ясно -14.0 -18.0 72 -19 -19 990.2
штиль 0 16 км ясно -15.0 -18.0 78 -15 -15 990.2
штиль 0 16 км ясно -15.0 -18.0 78 -15 -15 989.6
штиль 0 16 км ясно -15.0 -18.0 78 -15 -15 989.6
штиль 0 16 км ясно -15.0 -18.0 78 -15 -15 989.9
штиль 0 16 км 10/0 2100 m
[Ac]
-13.0 -17.0 72 -13 -13 989.9
Ю 3 16 км ясно -12.0 -17.0 66 -18 -18 989.9
Ю 4 16 км ясно -9.0 -19.0 44 -16 -14 989.6
ЮЗ 4 16 км ясно -8.0 -18.0 44 -14 -12 988.6
Ю 4 16 км ясно -6.0 -18.0 38 -12 -8 987.6
ЮЗ 5 16 км ясно -4.0 -17.0 36 -10 -7 986.0
Ю 10 16 км 8/8 1440 м -3.0 -17.0 33 -11 -11 984.4
Ю 6
{9}
16 км 5/5 1410 м -1.0 -16.0 31 -7 -6 983.4
Местоположение метеостанции Arnold Palmer Regional Airport: широта 40.2800 долгота -79.4000 высота над уровнем моря 361 м.
В архиве по умолчанию представлена погода в Латробе за последние 1-2 суток. Обновление информации о фактической погоде в базе происходит ежечасно! Архивные данные за месяц целиком и за предыдущие месяцы Вы можете получить, выбрав интересующий диапазон дат из раскрывающегося списка и нажав кнопку "Ввод!".
Внимание! Архив погоды МЕТАР в базе сайта по станциям, не включенным в климатический монитор, хранится не более 60 дней. Нет смысла пытаться выбрать более раннюю дату.
*Определитесь, кто Вы:
Внимание! Время в таблицах - местное (без учета летнего времени). Для получения всемирного времени необходимо вычесть поправку, которая равна -5 ч.
Смотрите также архив погоды в соседних городах и на ближайших метеорологических станциях:
Партнеры нашего сайта:      
Пояснения к столбцам:
  • Ветер - указаны скорость ветра в м/с - средняя за 10 мин, порывы в срок и между сроками (в фигурных скобках) и направление, откуда дует ветер: С - северный,
  • СВ - северо-восточный, В - восточный, ЮВ - юго-восточный, Ю - южный, ЮЗ - юго-западный, З - западный, СЗ - северо-западный.
  • Видимость - горизонтальная дальность видимости в метрах или километрах. При видимости от 1 до 10 км при отсутствии осадков обычно наблюдается дымка, при ухудшении видимости до 1 км и менее - туман. В сухую погоду видимость может ухудшаться дымом, пылью или мглою.
  • Явления - указаны атмосферные явления, наблюдавшиеся в срок или в последний час перед сроком; фигурными скобками обозначены явления, наблюдавшиеся между сроками (за 1-3 часа до срока); квадратными скобками обозначены град или гололедные отложения с указанием их диаметра в мм.
  • Облачность - указаны через наклонную черту общая и нижняя облачность в баллах и высота нижней границы облаков в метрах; квадратными скобками обозначены формы облаков: Ci - перистые, Cs - перисто-слоистые, Cc - перисто-кучевые, Ac - высококучевые, As - высокослоистые, Sc - слоисто-кучевые, Ns - слоисто-дождевые, Cu - кучевые, Cb - кучево-дождевые. Подробнее классификацию облаков см. в Атласе облаков (PDF).
  • T - Температура воздуха - температура, измеренная на высоте 2 м над землей.
  • Td - Температура точки росы - температура, при понижении до которой содержащийся в воздухе водяной пар достигнет насыщения.
  • f - Относительная влажность воздуха - влажноcть воздуха, измеренная на высоте 2 м над землей.
  • Te - Эффективная температура - температура, которую ощущает одетый по сезону человек в тени. Характеристика душности погоды. При расчете учитывается влияние влажности воздуха и скорости ветра на теплоощущения человека.
  • Tes - Эффективная температура на солнце - температура, которую ощущает человек, с поправкой на солнечный нагрев. Характеристика знойности погоды. Зависит от высоты солнца над горизонтом, облачности и скорости ветра. Ночью, в пасмурную погоду, а также при ветре 12 м/с и более поправка равна нулю.
  • P - Атмосферное давление - приведенное к уровню моря атмосферное давление.
  • Po - Атмосферное давление - измеренное на уровне метеостанции атмосферное давление.
  • Tmin - Минимальная температура - минимум температуры воздуха на высоте 2 м над землей.
  • Tmax - Максимальная температура - максимум температуры воздуха на высоте 2 м над землей.
  • R - Количество осадков - Количество выпавших осадков за период времени, мм. При наведении курсора мыши на число - период времени, за который выпало указанное количество осадков.
  • R24 - Количество осадков - Количество выпавших осадков за 24 часа, мм.
  • S - Снежный покров - Высота снежного покрова, см. При наведении курсора мыши на число - состояние снежного покрова и степень покрытия местности в баллах.